EBBEEBFS

Guest
Details From EBBE - Beauvechain
To EBFS - Florennes
Flight Number -
Tags decoded
Created
Modified
Stats Distance 31 nm / 58 km
Max Altitude 0 ft / 0 m
Waypoints 2
Social Downloads 1
Likes 0
Share VATSIM

Download

Looking for another format? Having issues loading an existing format? Contact us
Advertisement - Login to hide

Notes

Requested: EBBE EBFN EBFS

Route

EBBE EBFS

ID Type Via Altitude Latitude Longitude Leg Dist Tot Dist Heading (true) Name
O EBBE APT - 0 ft / 0 m 50.75695˚ 4.76936˚ - 0 nm - Beauvechain
O EBFS APT - 0 ft / 0 m 50.24086˚ 4.64829˚ 31 nm 31 nm 189° / 188° Florennes

Altitude Profile

Advertisement - Login to hide

EBBE

Details ICAO EBBE
Name Beauvechain
Region Belgium
Timezone Europe/Brussels (UTC+1.0)
Stats Elevation 341 ft / 104 m (AMSL)
Location 50.756950° 4.769359°
Runways 2
Magnetic Variation 1.216° E

METAR

EBBE 150755Z 21008KT 9999 FEW006 BKN009 BKN012 03/02 Q0993 GRN GRN

Decode

TAF

Not found

Departure Runways

ID Width Length Bearing (true) Bearing (mag) Surface Threshold Offset Overrun Length
04L 148 ft / 45 m 9,154 ft / 2,790 m 38.81° 37.59° Asphalt 213 ft / 65 m 965 ft / 294 m
04R 75 ft / 23 m 7,599 ft / 2,316 m 38.85° 37.63° Asphalt 0 ft / 0 m 0 ft / 0 m
22L 75 ft / 23 m 7,599 ft / 2,316 m 218.86° 217.64° Asphalt 0 ft / 0 m 0 ft / 0 m
22R 148 ft / 45 m 9,154 ft / 2,790 m 218.83° 217.61° Asphalt 1,145 ft / 349 m 0 ft / 0 m

EBFS

Details ICAO EBFS
Name Florennes
Region Belgium
Timezone Europe/Brussels (UTC+1.0)
Stats Elevation 900 ft / 274 m (AMSL)
Location 50.240864° 4.648295°
Runways 2
Magnetic Variation 1.204° E

METAR

EBFS 150755Z 23005KT 9999 SCT004 BKN006 01/00 Q0993 YLO YLO TEMPO AMB

Decode

TAF

Not found

Destination Runways

ID Width Length Bearing (true) Bearing (mag) Surface Threshold Offset Overrun Length
08L 148 ft / 45 m 11,215 ft / 3,418 m 79.47° 78.27° Asphalt 889 ft / 271 m 161 ft / 49 m
08R 75 ft / 23 m 7,337 ft / 2,236 m 79.44° 78.24° Asphalt 453 ft / 138 m 0 ft / 0 m
26L 75 ft / 23 m 7,337 ft / 2,236 m 259.46° 258.26° Asphalt 502 ft / 153 m 0 ft / 0 m
26R 148 ft / 45 m 11,215 ft / 3,418 m 259.51° 258.31° Asphalt 1,345 ft / 410 m 13 ft / 4 m

Approach Navaids

Runway Type Ident Frequency Range Bearing (true) Bearing (mag) Slope Elevation
26R Localiser BFS 108.35 MHz 18 nm / 33 km 259.49° 258.29° - 919 ft / 280 m (AMSL)
26R Glidescope BFS 108.35 MHz 10 nm / 19 km 259.49° 258.29° 2.75° 994 ft / 303 m (AMSL)

Popular Alternatives